Showing default

CONNECTA IOT-15, 67402

Orbit data source: Space-Track

CONNECTA IOT-15, 67402 is a payload satellite owned by Plan-S (TR) in SSO that was launched on Sun, 11 Jan 2026 UTC via an FALCON 9 launch vehicle from the Air Force Western Test Range (AFWTR). Payload-class satellites include a variety of spacecraft equipped with specific instruments for various scientific and technological missions. These include communications satellites like Starlink; space stations such as the ISS; scientific satellites like the Hubble; Earth observation satellites from companies like Planet Labs, Umbra, and HawkEye 360; GPS; miniature CubeSats for education and research; and military/defense satellites.

Loading next visibility...
Identifier
67402, 2026-004AR
Orbit
SSO
Country
Flag of TRTR / TURK
Related business
Manufacturer
Plan-S
Mission
Operational Commercial Communications
Bus & Motor
CUBESAT 6U, Unknown motor
Mass
10 kg wet, 10 kg dry
Launch date (UTC)
2026-01-11 (4 months ago)
Launch vehicle
FALCON 9
Launch site
Air Force Western Test Range (AFWTR)
Object type
Payload
Rocket body
Debris
Shape & HBR
Box, 2.2 m
Radar Cross Section
0.080 m²

Expand to show TLE details & history
Last TLE update: 12 hours ago

TLE from 12 hours ago
0 CONNECTA IOT-15
1 67402U 26004AR  26146.24796207  .00002955  00000-0  15050-3 0  9992
2 67402  97.4563 145.4348 0004988  61.8938 298.2799 15.17561744 20401
Epoch: 2026-05-26T05:57Z
TLE epoch observation values (Epoch: 2026-05-26T05:57:03.922Z)
Latitude
-0.00008°
Longitude
172.34434°
Altitude
514.67 km
Speed
7.607 km/s
True Right ascension
09h 41m 44s
True Declination
0° 00' 00"
Sunlit
Object was in daylight at epoch
Visualization orbit readout
Latitude
Unknown
Longitude
Unknown
Altitude
Unknown
Speed
Unknown
Apparent Right ascension
Unknown
Apparent Declination
Unknown
Sunlit
N/A
Visualization observer readout
Local Sidereal Time
03:34:54
Azimuth
Unknown
Elevation
Unknown
Doppler factor
Unknown
Orbital elements
Apogee altitude
513.619 km
Perigee altitude
506.748 km
Semi-major axis
6,888.321 km
Eccentricity
0.0005
Inclination
97.4563°
RAAN
145.4348°
Arg. of periapsis
61.8938°
True anomaly
298.22955°
Mean anomaly
298.2799°
Eccentric anomaly
298.25473°
Mean motion
3.79641 °/min
Orbital period
94.83 mins
BSTAR
0.0001505
Loading maneuver chart data...
Computing Atmospheric mass density...
Loading historical data...
Loading historical data...
Loading historical data...
Loading historical data...
Loading historical data...
Loading historical data...
Loading historical data...

Documentation

Showing up to 5 results
|